Location: Vienna
(48.2082°N, 16.3738°E)
Time: 09:43:37
(UTC+02:00)

ISS - Pass Details

Date: 19 July 2018
Orbit: 402 x 408 km, 51.6° (Epoch: 23 July)

Event Time Altitude Azimuth Distance (km) Brightness Sun altitude
Rises 21:26:11 0° 190° (S) 2,306 -0.3 -6.0°
Reaches altitude 10° 21:29:20 10° 157° (SSE) 1,455 -1.6 -6.4°
Maximum altitude 21:30:35 12° 134° (SE) 1,357 -1.9 -6.6°
Drops below altitude 10° 21:31:50 10° 112° (ESE) 1,460 -1.6 -6.7°
Sets 21:35:00 0° 79° (ENE) 2,328 -0.3 -7.1°
